Location: Azalea Creek
(37.1280°N, 119.2623°W)
Time: 18:04:57
(UTC+00:00)

Cosmos 2297 - Pass Details

Date: 17 February 2020
Orbit: 837 x 857 km, 71.0° (Epoch: 28 March)

Event Time Altitude Azimuth Distance (km) Brightness Sun altitude
Rises 02:20:21 0° 195° (SSW) 3,393 7.2 -9.2°
Reaches altitude 10° 02:22:48 10° 193° (SSW) 2,459 6.4 -9.6°
Maximum altitude 02:28:25 73° 110° (ESE) 880 3.7 -10.7°
Drops below altitude 10° 02:34:03 10° 26° (NNE) 2,461 5.8 -11.9°
Sets 02:36:29 0° 25° (NNE) 3,398 6.5 -12.3°
